Weather History for Sanford, FL

Change the Weather History Date:

Saturday, March 16, 2013

  Actual Average Record
Temperature  
Mean Temperature 64 °F -  
Max Temperature 79 °F 76 °F 89 °F (2002)
Min Temperature 48 °F 55 °F 38 °F (1988)
Degree Days  
Heating Degree Days 2    
Growing Degree Days 14 (Base 50)    
Moisture  
Dew Point 40 °F    
Average Humidity 49    
Maximum Humidity 83    
Minimum Humidity 20    
Precipitation  
Precipitation 0.00 in - - ()
Sea Level Pressure  
Sea Level Pressure 30.14 in    
Wind  
Wind Speed 6 mph (WSW)    
Max Wind Speed 13 mph    
Max Gust Speed 21 mph    
Visibility 10 miles    
Events      
Averages and records for this station are not official NWS values.
T = Trace of Precipitation, MM = Missing Value Source: NWS Daily Summary

Daily Weather History Graph

Daily Weather History Graph

Search for Another Location

Airport:

Trip Planner

Search our weather history database for the weather conditions in past years. The results will help you decide how hot, cold, wet, or windy it might be!

Date:

Astronomy

Mar. 16, 2013 Rise Set
Actual Time 7:33 AM EDT 7:34 PM EDT
Civil Twilight 7:09 AM EDT 7:57 PM EDT
Nautical Twilight 6:42 AM EDT 8:25 PM EDT
Astronomical Twilight 6:14 AM EDT 8:52 PM EDT
Moon 10:25 AM EDT (3/16) No Moon Set
Length of Visible Light 12h 48m
Length of Day
12h 01m
Waxing Crescent, 23% of the Moon is Illuminated
Mar 16
Waxing Crescent
Mar 19
First Quarter
Mar 27
Full
Apr 3
Last Quarter
Apr 10
New

Hourly Weather History & Observations

Time (EDT) Temp. Dew Point Humidity Pressure Visibility Wind Dir Wind Speed Gust Speed Precip Events Conditions
12:53 AM 52.0 °F 41.0 °F 66% 30.19 in 10.0 mi SW 4.6 mph - N/A   Clear
1:53 AM 51.1 °F 41.0 °F 68% 30.19 in 10.0 mi WSW 3.5 mph - N/A   Clear
2:53 AM 48.0 °F 42.1 °F 80% 30.18 in 10.0 mi West 3.5 mph - N/A   Clear
3:53 AM 48.9 °F 42.1 °F 77% 30.17 in 10.0 mi West 3.5 mph - N/A   Clear
4:53 AM 48.9 °F 42.1 °F 77% 30.16 in 10.0 mi Calm Calm - N/A   Clear
5:53 AM 48.9 °F 42.1 °F 77% 30.16 in 10.0 mi SW 4.6 mph - N/A   Clear
6:53 AM 50.0 °F 44.1 °F 80% 30.16 in 10.0 mi SSW 6.9 mph - N/A   Clear
7:53 AM 48.9 °F 44.1 °F 83% 30.18 in 10.0 mi SW 5.8 mph - N/A   Clear
8:53 AM 54.0 °F 46.0 °F 75% 30.20 in 10.0 mi SSW 5.8 mph - N/A   Clear
9:53 AM 61.0 °F 48.0 °F 62% 30.20 in 10.0 mi SSW 5.8 mph - N/A   Clear
10:53 AM 66.0 °F 42.1 °F 42% 30.19 in 10.0 mi SSW 9.2 mph - N/A   Clear
11:53 AM 70.0 °F 39.9 °F 33% 30.18 in 10.0 mi SSW 10.4 mph - N/A   Clear
12:53 PM 73.0 °F 37.9 °F 28% 30.16 in 10.0 mi SW 5.8 mph - N/A   Clear
1:53 PM 75.0 °F 37.9 °F 26% 30.13 in 10.0 mi WSW 5.8 mph - N/A   Clear
2:53 PM 77.0 °F 35.1 °F 22% 30.10 in 10.0 mi West 9.2 mph - N/A   Clear
3:53 PM 79.0 °F 34.0 °F 20% 30.07 in 10.0 mi SW 10.4 mph 16.1 mph N/A   Clear
4:53 PM 78.1 °F 34.0 °F 20% 30.06 in 10.0 mi WSW 10.4 mph 20.7 mph N/A   Clear
5:53 PM 78.1 °F 35.1 °F 21% 30.05 in 10.0 mi West 12.7 mph - N/A   Clear
6:53 PM 75.9 °F 37.0 °F 24% 30.06 in 10.0 mi WSW 4.6 mph - N/A   Clear
7:53 PM 73.0 °F 37.9 °F 28% 30.06 in 10.0 mi Calm Calm - N/A   Clear
8:53 PM 68.0 °F 39.9 °F 36% 30.08 in 10.0 mi West 8.1 mph - N/A   Clear
9:53 PM 64.0 °F 39.0 °F 40% 30.10 in 10.0 mi West 8.1 mph - N/A   Clear
10:53 PM 62.1 °F 39.0 °F 43% 30.12 in 10.0 mi West 6.9 mph - N/A   Clear
11:53 PM 59.0 °F 39.0 °F 48% 30.12 in 10.0 mi West 5.8 mph - N/A   Clear